Regional Weather Roundup
Issued by NWS

Home | Current Version | Previous Version | Graphics & Text | Print | Product List | Glossary On
Versions: 1 2 3 4 5 6 7 8 9 10 11 12 13 14 15 16 17 18 19 20 21 22 23 24 25 26 27 28 29 30 31 32 33 34 35 36 37 38 39 40 41 42 43 44 45 46 47 48 49 50
000
ASUS43 KIND 260609
RWRIN

WEATHER ROUNDUP FOR INDIANA
NATIONAL WEATHER SERVICE INDIANAPOLIS IN
100 AM EST WED NOV 26 2014

NOTE: "FAIR" INDICATES FEW OR NO CLOUDS BELOW 12,000 FEET WITH NO
SIGNIFICANT WEATHER AND/OR OBSTRUCTIONS TO VISIBILITY.

* - STATION DOES NOT REPORT WEATHER SUCH AS PRECIPITATION OR FOG.

+ - STATION NOT QUALITY CONTROLLED BY THE NATIONAL WEATHER SERVICE.
    USE DATA WITH CAUTION...ESPECIALLY DEWPOINT AND RELATIVE
    HUMIDITY OBSERVATIONS.

INZ001>003-010>013-019-020-260700-
NORTHWEST INDIANA

CITY           SKY/WX    TMP DP  RH WIND       PRES   REMARKS
GARY /AIRPORT/ CLOUDY    25  20  80 S6        30.20F WCI  18
KNOX *+        CLOUDY    24  20  82 S3        30.19F
LA PORTE +     CLOUDY    25  21  83 S5        30.19F WCI  20
6HR MIN TEMP:  25; 6HR MAX TEMP:  27;

MICHIGAN CITY+ CLOUDY    25  19  80 SW7       30.20F WCI  17
MONTICELLO +   CLOUDY    26  21  81 W6        30.19F WCI  19
RENSSELAER +   CLOUDY    27  23  86 S5        30.19F WCI  21
VALPARAISO     CLOUDY    23  18  81 S8        30.19F WCI  14
6HR MIN TEMP:  22; 6HR MAX TEMP:  24;


$$

LMZ046-743>745-260700-
SOUTHERN LAKE MICHIGAN

STATION/POSITION TIME  TEMP WIND        PRES
                       AIR  DIR/SP/G
                 (UTC) (F)  (DEG/KT/KT) (MB)
MICHIGAN CITY    0600   23  170/  7/  8   N/A

$$

INZ004-005-014>016-021>024-260700-
NORTH CENTRAL INDIANA

CITY           SKY/WX    TMP DP  RH WIND       PRES   REMARKS
GOSHEN         CLOUDY    25  18  74 VRB3      30.19S
6HR MIN TEMP:  25; 6HR MAX TEMP:  27;

LOGANSPORT +   CLOUDY    27  19  74 CALM      30.20F
PERU/GRISSOM   CLOUDY    25  24  95 W3        30.17F
6HR MIN TEMP:  25; 6HR MAX TEMP:  26;

ROCHESTER +    CLOUDY    28  23  80 CALM      30.20S
SOUTH BEND     CLOUDY    25  19  78 SW9       30.20S WCI  15
6HR MIN TEMP:  25; 6HR MAX TEMP:  27;

WARSAW +       CLOUDY    25  19  80 CALM      30.19F

$$

INZ006>009-017-018-025>027-260700-
NORTHEAST INDIANA

CITY           SKY/WX    TMP DP  RH WIND       PRES   REMARKS
ANGOLA *+      CLOUDY    25  19  80 SE3       30.17F
AUBURN +       CLOUDY    27  19  74 CALM      30.20F
FORT WAYNE     CLOUDY    26  20  77 N6        30.20F WCI  19
6HR MIN TEMP:  25; 6HR MAX TEMP:  26;

HUNTINGTON +   CLOUDY    25  21  85 CALM      30.18F
6HR MIN TEMP:  25; 6HR MAX TEMP:  26;


$$

INZ028-029-035-036-043>045-051>053-260700-
WEST CENTRAL INDIANA

CITY           SKY/WX    TMP DP  RH WIND       PRES   REMARKS
GREENCASTLE +  CLOUDY    27  21  80 CALM      30.18F
LAFAYETTE      CLOUDY    25  19  78 CALM      30.19F
6HR MIN TEMP:  24; 6HR MAX TEMP:  26;

TERRE HAUTE    CLOUDY    28  21  75 E3        30.19F
6HR MIN TEMP:  28; 6HR MAX TEMP:  29;


$$

INZ030>032-037>040-046>048-054>057-064-065-260700-
CENTRAL INDIANA

CITY           SKY/WX    TMP DP  RH WIND       PRES   REMARKS
CP ATTERBURY + CLOUDY    30  27  86 NW3       30.18F
FRANKFORT +    CLOUDY    25  22  85 CALM      30.19F
INDIANAPOLIS   CLOUDY    26  20  77 N5        30.17F WCI  20
6HR MIN TEMP:  26; 6HR MAX TEMP:  28;

-EAGLE CREEK   CLOUDY    26  20  77 CALM      30.17F
6HR MIN TEMP:  25; 6HR MAX TEMP:  28;

KOKOMO *+      CLOUDY    25  18  74 CALM      30.18F
MARION +         N/A     25  21  83 CALM      30.18F
MT COMFORT *+  CLOUDY    27  18  69 NW6       30.18F WCI  20
SHELBYVILLE    CLOUDY    30  23  75 N5        30.17F WCI  25
6HR MIN TEMP:  29; 6HR MAX TEMP:  32;

ZIONSVILLE +   CLOUDY    26  20  79 CALM      30.17F
6HR MIN TEMP:  26; 6HR MAX TEMP:  28;


$$

INZ033-034-041-042-049-050-058-059-260700-
EAST CENTRAL INDIANA

CITY           SKY/WX    TMP DP  RH WIND       PRES   REMARKS
MUNCIE         CLOUDY    27  23  85 NW3       30.17F
6HR MIN TEMP:  27; 6HR MAX TEMP:  29;


$$

INZ060-061-067>069-081>083-085>088-260700-
SOUTHWEST INDIANA

CITY           SKY/WX    TMP DP  RH WIND       PRES   REMARKS
EVANSVILLE     CLEAR     29  24  82 CALM      30.19F
6HR MIN TEMP:  28; 6HR MAX TEMP:  34;

HUNTINGBURG *+ CLEAR     27  21  80 N5        30.18F WCI  21
6HR MIN TEMP:  27; 6HR MAX TEMP:  32;

WASHINGTON +   CLOUDY    29  25  84 NE5       30.18F WCI  24
6HR MIN TEMP:  29; 6HR MAX TEMP:  31;


$$

INZ062-063-066-070>080-084-089>092-260700-
SOUTH CENTRAL AND SOUTHEAST INDIANA

CITY           SKY/WX    TMP DP  RH WIND       PRES   REMARKS
BLOOMINGTON    CLOUDY    27  22  81 CALM      30.17F
6HR MIN TEMP:  27; 6HR MAX TEMP:  31;

SEYMOUR +      CLEAR     28  25  86 N3        30.18

$$




USA.gov is the U.S. government's official web portal to all federal, state and local government web resources and services.